User: anonymous   Login
Location: Little Ridge
(33.0629°N, 96.4547°W)
Time: 15:15:23
(UTC+00:00)
Language:

GPS 2-04 Rocket1 - Orbit

View from above orbital plane
View from above orbital plane
View from above satellite
View from above satellite

Ground track
Ground track

The orbit data is extracted from the following two-line orbital elements,

1 20303U 89085B   22145.34963975  .00013426  00000-0  34860-3 0  9998
2 20303  35.6383 234.7921 0080312   3.7950 356.3375 15.34881126776364
Epoch (UTC): 25 May 2022 08:23:28
Eccentricity: 0.0080312
inclination: 35.6383°
perigee height: 406 km
apogee height: 516 km
right ascension of ascending node: 234.7921°
argument of perigee: 3.7950°
revolutions per day: 15.34881126
mean anomaly at epoch: 356.3375°
orbit number at epoch: 77636

The dashed part of the orbit path shows where the satellite is in the earth's shadow,  

DLR